Weather History for Maple Lake, MN

Change the Weather History Date:

Wednesday, February 19, 2014

  Actual Average (KSTC) Record (KSTC)
Temperature  
Mean Temperature 26 °F 18 °F  
Max Temperature 38 °F 28 °F 56 °F (1981)
Min Temperature 13 °F 9 °F -26 °F (1910)
Degree Days  
Heating Degree Days 40 47  
Month to date heating degree days 942  
Since 1 July heating degree days 6044  
Cooling Degree Days 0 0  
Month to date cooling degree days 0  
Year to date cooling degree days 0  
Moisture  
Dew Point 25 °F    
Average Humidity 86    
Maximum Humidity 99    
Minimum Humidity 75    
Precipitation  
Precipitation 0.00 in 0.03 in 0.53 in (1971)
Month to date precipitation 0.35  
Year to date precipitation 1.00  
Snow  
Snow 0.00 in 0.20 in 4.90 in (1951)
Month to date snowfall 4.4  
Since 1 July snowfall 31.6  
Snow Depth -    
Sea Level Pressure  
Sea Level Pressure 29.74 in    
Wind  
Wind Speed 5 mph (South)    
Max Wind Speed 12 mph    
Max Gust Speed 17 mph    
Visibility 9 miles    
Events      
T = Trace of Precipitation, MM = Missing Value Source: NWS Daily Summary

Daily Weather History Graph

Daily Weather History Graph

Search for Another Location

Airport:

Trip Planner

Search our weather history database for the weather conditions in past years. The results will help you decide how hot, cold, wet, or windy it might be!

Date:

Astronomy

Feb. 19, 2014 Rise Set
Actual Time 7:10 AM CST 5:49 PM CST
Civil Twilight 6:40 AM CST 6:19 PM CST
Nautical Twilight 6:06 AM CST 6:53 PM CST
Astronomical Twilight 5:32 AM CST 7:27 PM CST
Moon 10:59 PM CST (2/19) 9:03 AM CST (2/19)
Length of Visible Light 11h 38m
Length of Day
10h 38m
Waning Gibbous, 79% of the Moon is Illuminated
Feb 19
Waning Gibbous
Feb 22
Last Quarter
Mar 1
New
Mar 8
First Quarter
Mar 16
Full

Hourly Weather History & Observations

Time (CST) Temp. Windchill Dew Point Humidity Pressure Visibility Wind Dir Wind Speed Gust Speed Precip Events Conditions
12:16 AM 27.5 °F 20.2 °F 22.6 °F 82% 29.76 in 10.0 mi West 6.9 mph - N/A   Clear
12:37 AM 27.0 °F 19.5 °F 22.6 °F 84% 29.77 in 10.0 mi West 6.9 mph - N/A   Clear
12:57 AM 26.6 °F 20.0 °F 22.3 °F 84% 29.76 in 10.0 mi West 5.8 mph - N/A   Clear
1:17 AM 25.9 °F 20.3 °F 22.1 °F 86% 29.76 in 10.0 mi West 4.6 mph - N/A   Clear
1:36 AM 25.7 °F 21.5 °F 22.1 °F 86% 29.76 in 10.0 mi West 3.5 mph - N/A   Clear
1:57 AM 24.4 °F 18.6 °F 21.4 °F 88% 29.76 in 10.0 mi WSW 4.6 mph - N/A   Clear
2:17 AM 23.0 °F 15.8 °F 21.0 °F 92% 29.77 in 10.0 mi WSW 5.8 mph - N/A   Clear
2:37 AM 22.6 °F 15.3 °F 21.2 °F 94% 29.77 in 10.0 mi WSW 5.8 mph - N/A   Clear
2:57 AM 22.5 °F 15.1 °F 21.2 °F 95% 29.78 in 10.0 mi WSW 5.8 mph - N/A   Clear
3:17 AM 22.1 °F 14.7 °F 21.2 °F 96% 29.77 in 10.0 mi WSW 5.8 mph - N/A   Clear
3:37 AM 23.0 °F 15.8 °F 21.9 °F 96% 29.77 in 10.0 mi WSW 5.8 mph - N/A   Clear
3:57 AM 23.0 °F 17.0 °F 22.1 °F 96% 29.76 in 10.0 mi WSW 4.6 mph - N/A   Clear
4:16 AM 22.8 °F 18.2 °F 21.9 °F 96% 29.77 in 10.0 mi West 3.5 mph - N/A   Clear
4:37 AM 20.1 °F - 19.2 °F 96% 29.78 in 10.0 mi Calm Calm - N/A   Clear
4:57 AM 20.8 °F 16.0 °F 20.1 °F 97% 29.78 in 10.0 mi West 3.5 mph - N/A   Clear
5:17 AM 21.9 °F 17.2 °F 21.2 °F 97% 29.78 in 10.0 mi WSW 3.5 mph - N/A   Clear
5:36 AM 20.3 °F 15.4 °F 19.6 °F 97% 29.78 in 10.0 mi West 3.5 mph - N/A   Clear
5:57 AM 18.5 °F - 17.6 °F 96% 29.78 in 5.0 mi Calm Calm - N/A   Clear
6:17 AM 17.6 °F - 16.7 °F 96% 29.78 in 5.0 mi Calm Calm - N/A   Clear
6:37 AM 14.9 °F - 13.3 °F 93% 29.78 in 5.0 mi Calm Calm - N/A   Clear
6:57 AM 13.8 °F - 12.9 °F 96% 29.78 in 7.0 mi Calm Calm - N/A   Clear
7:17 AM 15.6 °F - 14.5 °F 95% 29.78 in 7.0 mi Calm Calm - N/A   Clear
7:37 AM 15.3 °F - 14.0 °F 95% 29.79 in 4.0 mi Calm Calm - N/A   Clear
7:56 AM 16.0 °F - 14.9 °F 95% 29.79 in 5.0 mi Calm Calm - N/A   Clear
8:17 AM 16.9 °F - 16.2 °F 97% 29.80 in 3.0 mi Calm Calm - N/A   Clear
8:36 AM 19.4 °F - 18.3 °F 96% 29.80 in 4.0 mi Calm Calm - N/A   Clear
8:57 AM 22.1 °F 17.4 °F 21.6 °F 98% 29.81 in 7.0 mi SW 3.5 mph - N/A   Clear
9:16 AM 24.6 °F 20.3 °F 24.3 °F 99% 29.81 in 10.0 mi SW 3.5 mph - N/A   Clear
9:37 AM 24.8 °F - 24.4 °F 99% 29.82 in 10.0 mi Calm Calm - N/A   Clear
9:57 AM 24.1 °F - 23.7 °F 99% 29.82 in 10.0 mi Calm Calm - N/A   Clear
10:17 AM 24.1 °F - 23.0 °F 96% 29.81 in 10.0 mi Calm Calm - N/A   Clear
10:36 AM 24.6 °F 18.8 °F 22.1 °F 90% 29.82 in 10.0 mi SSW 4.6 mph - N/A   Clear
10:57 AM 26.2 °F 22.1 °F 22.8 °F 87% 29.81 in 10.0 mi South 3.5 mph - N/A   Clear
11:17 AM 27.5 °F 23.6 °F 23.0 °F 83% 29.80 in 10.0 mi South 3.5 mph - N/A   Clear
11:36 AM 29.1 °F 25.4 °F 23.9 °F 81% 29.81 in 10.0 mi SSW 3.5 mph - N/A   Clear
11:57 AM 30.7 °F 27.3 °F 25.5 °F 81% 29.80 in 10.0 mi South 3.5 mph - N/A   Clear
12:17 PM 32.0 °F 28.7 °F 26.8 °F 81% 29.79 in 10.0 mi SSE 3.5 mph - N/A   Clear
12:37 PM 32.0 °F 26.4 °F 26.6 °F 80% 29.78 in 10.0 mi SSE 5.8 mph - N/A   Clear
12:56 PM 32.7 °F 27.3 °F 27.7 °F 82% 29.77 in 10.0 mi South 5.8 mph - N/A   Clear
1:17 PM 34.5 °F 30.4 °F 28.4 °F 78% 29.76 in 10.0 mi SSE 4.6 mph - N/A   Clear
1:37 PM 34.9 °F 29.9 °F 28.8 °F 78% 29.76 in 10.0 mi South 5.8 mph - N/A   Clear
1:57 PM 35.2 °F 30.3 °F 28.9 °F 78% 29.76 in 10.0 mi South 5.8 mph - N/A   Clear
2:16 PM 35.6 °F 29.9 °F 29.3 °F 78% 29.75 in 10.0 mi SSE 6.9 mph - N/A   Clear
2:37 PM 36.0 °F 32.1 °F 29.3 °F 77% 29.74 in 10.0 mi SSE 4.6 mph - N/A   Clear
2:56 PM 35.6 °F 29.9 °F 29.3 °F 78% 29.73 in 10.0 mi SSE 6.9 mph - N/A   Clear
3:17 PM 35.6 °F 29.9 °F 29.3 °F 78% 29.73 in 10.0 mi SSE 6.9 mph - N/A   Clear
3:36 PM 36.0 °F 31.1 °F 30.0 °F 79% 29.73 in 10.0 mi SSE 5.8 mph - N/A   Clear
3:57 PM 37.4 °F 32.8 °F 30.7 °F 77% 29.72 in 10.0 mi SE 5.8 mph - N/A   Clear
4:16 PM 38.3 °F 32.5 °F 30.9 °F 75% 29.71 in 10.0 mi SE 8.1 mph - N/A   Clear
4:37 PM 38.1 °F 32.3 °F 30.7 °F 75% 29.70 in 10.0 mi SE 8.1 mph - N/A   Clear
4:57 PM 37.4 °F 32.8 °F 30.4 °F 76% 29.70 in 10.0 mi SE 5.8 mph - N/A   Scattered Clouds
5:16 PM 37.4 °F 31.4 °F 30.6 °F 76% 29.70 in 10.0 mi SE 8.1 mph - N/A   Clear
5:37 PM 37.6 °F 32.3 °F 30.7 °F 76% 29.69 in 10.0 mi SE 6.9 mph - N/A   Mostly Cloudy
5:57 PM 37.4 °F 32.1 °F 30.2 °F 75% 29.69 in 10.0 mi SSE 6.9 mph - N/A   Overcast
6:17 PM 36.9 °F 31.4 °F 29.5 °F 75% 29.69 in 10.0 mi SE 6.9 mph - N/A   Scattered Clouds
6:37 PM 35.6 °F 30.7 °F 29.1 °F 77% 29.69 in 10.0 mi SSE 5.8 mph - N/A   Clear
6:56 PM 35.6 °F 29.2 °F 29.1 °F 77% 29.68 in 10.0 mi SE 8.1 mph - N/A   Clear
7:17 PM 35.8 °F 28.8 °F 29.3 °F 77% 29.68 in 10.0 mi SE 9.2 mph - N/A   Clear
7:37 PM 35.6 °F 28.6 °F 29.3 °F 78% 29.67 in 10.0 mi SE 9.2 mph - N/A   Clear
7:56 PM 35.6 °F 28.6 °F 29.5 °F 78% 29.66 in 10.0 mi SE 9.2 mph - N/A   Clear
8:17 PM 35.8 °F 28.8 °F 30.2 °F 80% 29.65 in 10.0 mi SSE 9.2 mph - N/A   Clear
8:37 PM 36.1 °F 28.7 °F 31.1 °F 82% 29.65 in 10.0 mi SSE 10.4 mph 16.1 mph N/A   Clear
8:56 PM 36.3 °F 28.4 °F 31.3 °F 82% 29.65 in 10.0 mi SSE 11.5 mph 17.3 mph N/A   Clear
9:17 PM 36.5 °F 29.2 °F 31.8 °F 83% 29.65 in 10.0 mi SE 10.4 mph - N/A   Clear
9:36 PM 36.9 °F 30.1 °F 32.0 °F 83% 29.64 in 10.0 mi SSE 9.2 mph - N/A   Mostly Cloudy
9:57 PM 37.6 °F 30.0 °F 32.0 °F 80% 29.64 in 10.0 mi SSE 11.5 mph 16.1 mph N/A   Scattered Clouds
10:17 PM 37.9 °F 30.9 °F 32.0 °F 79% 29.64 in 10.0 mi SSE 10.4 mph 17.3 mph N/A   Clear
10:37 PM 37.6 °F 31.6 °F 32.0 °F 80% 29.64 in 10.0 mi SSE 8.1 mph 17.3 mph N/A   Clear
10:56 PM 37.4 °F 30.3 °F 31.6 °F 80% 29.64 in 10.0 mi SSE 10.4 mph - N/A   Clear
11:17 PM 37.4 °F 29.8 °F 31.8 °F 80% 29.64 in 10.0 mi SSE 11.5 mph 16.1 mph N/A   Mostly Cloudy
11:37 PM 37.9 °F 31.5 °F 32.0 °F 79% 29.64 in 10.0 mi SSE 9.2 mph - N/A   Overcast
11:57 PM 38.1 °F 32.3 °F 32.0 °F 79% 29.63 in 10.0 mi SSE 8.1 mph 17.3 mph N/A   Overcast